Date,TemperatureHighF,TemperatureAvgF,TemperatureLowF,DewpointHighF,DewpointAvgF,DewpointLowF,HumidityHigh,HumidityAvg,HumidityLow,PressureMaxIn,PressureMinIn,WindSpeedMaxMPH,WindSpeedAvgMPH,GustSpeedMaxMPH,PrecipitationSumIn
2013-5-1,80.2,62.2,41.5,61.0,51.8,38.7,97,70,47,29.08,28.63,15,3,15,0.31
2013-5-2,44.1,40.2,35.6,41.7,37.2,31.3,99,90,63,29.28,29.08,14,3,14,0.58
2013-5-3,55.8,45.3,37.0,39.2,35.5,32.7,90,70,45,29.18,28.79,14,3,14,0.01
2013-5-4,50.9,44.2,38.8,47.0,42.6,38.1,99,94,85,28.90,28.71,10,3,10,0.06
2013-5-5,59.2,51.3,46.2,52.5,48.7,45.7,99,91,77,28.99,28.90,7,1,7,0.00
2013-5-6,82.8,61.7,52.0,61.2,54.6,49.8,98,80,46,28.98,28.87,6,1,6,0.00
2013-5-7,87.6,64.8,46.4,64.3,55.1,45.6,99,75,40,28.94,28.81,7,1,7,0.00
2013-5-8,84.2,68.5,59.2,68.1,62.3,55.1,99,82,57,28.86,28.71,10,1,10,0.18
2013-5-9,81.9,67.6,59.2,67.3,61.9,58.1,99,84,55,28.82,28.69,8,1,8,0.00
2013-5-10,79.3,63.2,53.1,60.4,55.3,49.6,99,78,47,28.92,28.80,8,1,8,0.00
2013-5-11,78.3,61.4,48.9,53.6,41.6,28.1,99,56,22,29.11,28.91,13,2,13,0.00
2013-5-12,78.8,56.7,36.5,46.8,39.4,29.1,93,57,25,29.14,28.97,6,1,6,0.00
2013-5-13,90.0,68.2,46.9,62.2,54.3,44.2,92,65,38,29.00,28.76,7,1,7,0.00
2013-5-14,100.2,82.3,67.3,61.6,57.3,52.9,73,46,22,28.77,28.64,16,5,16,0.00
2013-5-15,96.8,79.7,67.8,71.9,65.1,58.4,92,63,41,28.74,28.64,12,2,12,0.00
2013-5-16,90.7,74.3,63.1,69.9,65.9,62.0,99,78,48,28.74,28.64,6,1,6,0.00
2013-5-17,93.4,74.5,60.8,72.0,66.2,59.7,99,78,48,28.78,28.69,4,0,5,0.00
2013-5-18,90.9,76.7,61.9,78.8,71.1,60.7,98,84,66,28.77,28.56,15,1,15,0.00
2013-5-19,86.5,70.4,61.0,75.8,66.6,59.5,99,89,63,28.70,28.38,21,2,21,0.40
2013-5-20,93.7,73.4,58.5,69.9,61.7,57.3,99,71,35,28.60,28.47,16,1,16,0.00
2013-5-21,81.1,68.5,57.2,60.7,55.5,53.1,89,65,44,28.65,28.55,15,2,15,0.00
2013-5-22,79.9,64.3,54.3,59.6,54.4,50.8,88,71,49,28.82,28.61,10,1,11,0.00
2013-5-23,80.6,63.7,53.1,61.9,55.6,51.0,94,77,52,29.05,28.82,4,1,4,0.00
2013-5-24,86.9,67.4,50.2,63.5,56.9,49.4,99,72,45,29.13,28.94,8,1,8,0.00
2013-5-25,90.5,76.4,65.5,72.7,66.8,58.6,90,73,52,28.99,28.82,12,2,12,0.00
2013-5-26,90.9,78.4,70.2,76.1,71.9,67.3,95,81,62,28.88,28.71,10,2,11,0.00
2013-5-27,90.0,75.4,63.9,78.8,70.4,63.0,99,85,69,28.75,28.48,8,2,8,0.84
2013-5-28,88.9,79.6,72.9,79.7,73.5,70.1,92,82,70,28.62,28.49,12,2,12,0.00
2013-5-29,87.6,77.2,68.9,75.7,70.9,65.1,88,81,66,28.61,28.43,16,3,16,0.00
2013-5-30,86.9,69.9,63.3,72.4,66.0,62.0,99,89,59,28.57,28.41,7,1,7,0.39
2013-5-31,93.2,74.8,60.4,75.8,68.7,59.9,99,84,41,28.60,28.46,5,0,5,1.03